Flag for Germany Weather past 2 weeks in Cuxhaven, Lower Saxony, Germany

Now
54 °F

Partly sunny.


Feels Like: 52 °F
Forecast: 50 / 58 °F
Wind: 6 mph from Southwest

Location: Nordholz

Current Time: Oct 25, 2014 at 7:35:34 PM

Latest Report: Oct 25, 2014 at 6:20 PM


Visibility: N/A

Pressure: 30.07 "Hg

Humidity: 94%

Dew point: 52 °F

Location of CuxhavenLocation

Historic Weather in Cuxhaven — Graph

°F

Cuxhaven temperature yesterday

Maximum temperature yesterday: 57 °F (at 1:20 PM)
Minimum temperature yesterday: 52 °F (at 12:20 AM)
Average temperature yesterday: 54 °F

Past Weeks' High & Low Weather Summary

 TemperatureHumidityPressure
High70 °F (Oct 19, 1:20 PM)100% (Oct 11, 8:48 AM)30.15 "Hg (Oct 11, 8:48 AM)
Low46 °F (Oct 11, 7:20 AM)56% (Oct 11, 4:20 PM)29.33 "Hg (Oct 21, 5:20 PM)
Average55 °F89%29.84 "Hg
* Reported Oct 10 6:20 PM — Oct 25 6:20 PM, Cuxhaven, Weather by CustomWeather, © 2014

Note: Actual official high and low records may vary slightly from our data, if they occured in-between our weather recording intervals... More about our weather records

Advertising

Cuxhaven weather history for previous 24 hours

 ConditionsComfort  
Time TempWeatherWind HumidityBarometerVisibility
6:20 PM
Oct 25
54 °FPartly sunny.6 mph94%30.07 "HgN/A
5:20 PM55 °FBroken clouds.7 mph82%30.07 "HgN/A
4:20 PM57 °FPartly sunny.7 mph82%30.04 "HgN/A
3:20 PM57 °FPartly sunny.9 mph88%30.04 "HgN/A
2:20 PM57 °FBroken clouds.10 mph88%30.04 "Hg6 mi
1:20 PM57 °FBroken clouds.12 mph88%30.04 "Hg4 mi
12:20 PM55 °FFog.12 mph94%30.01 "Hg3 mi
11:53 AM54 °FFog.9 mph100%30.01 "Hg2 mi
11:20 AM54 °FFog.12 mph94%30.01 "Hg2 mi
10:53 AM52 °FFog.10 mph100%30.01 "Hg1 mi
10:20 AM52 °FFog.10 mph100%30.01 "Hg1 mi
9:51 AM52 °FFog.10 mph94%30.01 "Hg1 mi
9:20 AM52 °FFog.12 mph94%29.98 "Hg1 mi
8:57 AM52 °FFog.12 mph94%29.98 "Hg1 mi
8:20 AM52 °FFog.12 mph94%29.98 "Hg1 mi
7:45 AM52 °FDrizzle. Fog.10 mph94%29.95 "Hg2 mi
7:20 AM50 °FDrizzle. Fog.10 mph100%29.95 "Hg3 mi
6:55 AM50 °FDrizzle. Fog.12 mph100%29.95 "Hg2 mi
5:20 AM50 °FPassing clouds.10 mph94%29.95 "Hg4 mi
4:20 AM50 °FPassing clouds.9 mph94%29.95 "Hg4 mi
3:20 AM50 °FDrizzle. Fog.9 mph94%29.98 "Hg2 mi
2:20 AM52 °FDrizzle. Fog.9 mph88%29.98 "Hg2 mi
1:20 AM52 °FDrizzle. Fog.12 mph88%29.98 "Hg3 mi
12:20 AM52 °FPassing clouds.10 mph88%30.01 "HgN/A
11:20 PM
Oct 24
52 °FPassing clouds.9 mph88%30.01 "Hg4 mi
10:20 PM52 °FPassing clouds.9 mph88%30.01 "HgN/A
9:20 PM52 °FLight rain. Passing clouds.9 mph88%30.04 "HgN/A
8:20 PM52 °FLight rain. Partly cloudy.10 mph82%30.04 "HgN/A
7:20 PM54 °FLight rain. Passing clouds.9 mph77%30.04 "HgN/A
Weather by CustomWeather, © 2014

See weather overviewHow to use our weather pages